Location: Oberwangen
(47.4286°N, 8.9679°E)
Time: 23:31:38
(UTC+00:00)

LEMUR 2 WINGO - Pass Details

Date: 02 February 2022
Orbit: 454 x 467 km, 51.6° (Epoch: 17 May)

Event Time Altitude Azimuth Distance (km) Brightness Sun altitude
Rises 17:29:22 0° 293° (WNW) 2,467 ? -10.8°
Reaches altitude 10° 17:31:31 10° 296° (WNW) 1,593 ? -11.1°
Maximum altitude 17:35:05 63° 19° (NNE) 512 ? -11.7°
Enters shadow 17:37:34 18° 97° (E) 1,172 ? -12.1°
